This is the latest recevied weather packets stored in our database for station/object KQ4DLB-13. If no packets are shown the sender has not sent any weather packets the latest 10 day(s).
| Time | Temp. | Humidity | Pressure | Rain* | Wind** | Luminosity | Snow |
|---|---|---|---|---|---|---|---|
| 1777042202 | 22.22° C | 64% | 987.9 hPa | 0 mm | - | 616 W/m² | - |
| 1777041903 | 22.22° C | 65% | 987.9 hPa | 0 mm | - | 518 W/m² | - |
| 1777041603 | 21.67° C | 65% | 987.8 hPa | 0 mm | - | 454 W/m² | - |
| 1777041302 | 21.67° C | 65% | 987.8 hPa | 0 mm | - | 369 W/m² | - |
| 1777041002 | 21.67° C | 65% | 987.8 hPa | 0 mm | - | 312 W/m² | - |
| 1777040702 | 21.67° C | 65% | 987.7 hPa | 0 mm | - | 296 W/m² | - |
| 1777040404 | 21.67° C | 65% | 987.6 hPa | 0 mm | - | 271 W/m² | - |
| 1777040102 | 21.67° C | 65% | 987.6 hPa | 0 mm | - | 322 W/m² | - |
| 1777039802 | 21.11° C | 66% | 987.7 hPa | 0 mm | - | 427 W/m² | - |
| 1777039503 | 21.11° C | 67% | 987.8 hPa | 0 mm | - | 459 W/m² | - |
| 1777039202 | 20.56° C | 67% | 987.7 hPa | 0 mm | - | 419 W/m² | - |
| 1777038902 | 20.56° C | 69% | 987.6 hPa | 0 mm | - | 398 W/m² | - |
| 1777038602 | 20° C | 69% | 987.5 hPa | 0 mm | - | 361 W/m² | - |
| 1777038302 | 20° C | 70% | 987.4 hPa | 0 mm | - | 323 W/m² | - |
| 1777038003 | 19.44° C | 72% | 987.3 hPa | 0 mm | - | 296 W/m² | - |
| 1777037702 | 19.44° C | 72% | 987.6 hPa | 0 mm | - | 269 W/m² | - |
| 1777037402 | 19.44° C | 73% | 988 hPa | 0 mm | - | 137 W/m² | - |
| 1777037102 | 19.44° C | 73% | 988 hPa | 0 mm | - | 108 W/m² | - |
| 1777036802 | 19.44° C | 73% | 988 hPa | 0 mm | - | 103 W/m² | - |
| 1777036502 | 19.44° C | 73% | 988 hPa | 0 mm | - | 110 W/m² | - |
| 1777036203 | 18.89° C | 74% | 988 hPa | 0 mm | - | 127 W/m² | - |
| 1777035902 | 18.89° C | 74% | 987.9 hPa | 0 mm | - | 143 W/m² | - |
| 1777035603 | 18.33° C | 74% | 987.8 hPa | 0 mm | - | 147 W/m² | - |
| 1777035303 | 18.33° C | 76% | 987.8 hPa | 0 mm | - | 139 W/m² | - |
| 1777035002 | 17.78° C | 76% | 987.7 hPa | 0 mm | - | 130 W/m² | - |
* Rain latest hour (hover to see other rain measurements)
** Current wind speed in m/s (hover to see current wind gust speed)